| time (UTC) | temp C | wind direction | speed KPH | gust KPH | rain 1hr cm | rain 24hr cm | rain mn cm | humidity % | barometer mb |
| 20260508013311 | 23 | 248 | 14.5 | 29.0 | 0.00 | 0.00 | 0.00 | 24 | 1012.3 |
| 20260508012811 | 23 | 261 | 14.5 | 29.0 | 0.00 | 0.00 | 0.00 | 22 | 1012.4 |
| 20260508012311 | 23 | 255 | 12.9 | 22.5 | 0.00 | 0.00 | 0.00 | 24 | 1012.3 |
| 20260508011811 | 23 | 281 | 12.9 | 25.7 | 0.00 | 0.00 | 0.00 | 24 | 1012.4 |
| 20260508011310 | 23 | 267 | 14.5 | 29.0 | 0.00 | 0.00 | 0.00 | 23 | 1012.4 |
| 20260508010810 | 23 | 336 | 14.5 | 29.0 | 0.00 | 0.00 | 0.00 | 21 | 1012.3 |
| 20260508010309 | 23 | 223 | 14.5 | 24.1 | 0.00 | 0.00 | 0.00 | 23 | 1012.4 |
| 20260508005809 | 23 | 301 | 14.5 | 27.4 | 0.00 | 0.00 | 0.00 | 21 | 1012.3 |
| 20260508005550 | 23 | 300 | 14.5 | 33.8 | 0.00 | 0.00 | 0.00 | 21 | 1012.3 |
| 20260508004819 | 23 | 292 | 16.1 | 37.0 | 0.00 | 0.00 | 0.00 | 20 | 1012.3 |
| 20260508004318 | 24 | 250 | 14.5 | 37.0 | 0.00 | 0.00 | 0.00 | 20 | 1012.2 |
| 20260508003816 | 24 | 269 | 12.9 | 29.0 | 0.00 | 0.00 | 0.00 | 19 | 1012.2 |
| 20260508003344 | 24 | 282 | 12.9 | 27.4 | 0.00 | 0.00 | 0.00 | 19 | 1012.1 |
| 20260508003340 | 24 | 279 | 14.5 | 27.4 | 0.00 | 0.00 | 0.00 | 19 | 1012.1 |
| 20260508002301 | 24 | 254 | 14.5 | 32.2 | 0.00 | 0.00 | 0.00 | 20 | 1012.0 |
| 20260508001815 | 24 | 246 | 16.1 | 32.2 | 0.00 | 0.00 | 0.00 | 20 | 1012.0 |
| 20260508001334 | 25 | 263 | 14.5 | 29.0 | 0.00 | 0.00 | 0.00 | 19 | 1011.9 |
| 20260508001329 | 24 | 234 | 14.5 | 29.0 | 0.00 | 0.00 | 0.00 | 19 | 1012.0 |
| 20260508001042 | 24 | 316 | 16.1 | 32.2 | 0.00 | 0.00 | 0.00 | 20 | 1011.9 |
| 20260507235756 | 24 | 265 | 16.1 | 32.2 | 0.00 | 0.00 | 0.00 | 19 | 1011.9 |
| 20260507235257 | 25 | 326 | 14.5 | 35.4 | 0.00 | 0.00 | 0.00 | 19 | 1011.9 |
| 20260507234834 | 25 | 293 | 14.5 | 35.4 | 0.00 | 0.00 | 0.00 | 21 | 1011.8 |
| 20260507234820 | 25 | 296 | 14.5 | 35.4 | 0.00 | 0.00 | 0.00 | 19 | 1011.8 |
| 20260507233755 | 25 | 288 | 14.5 | 35.4 | 0.00 | 0.00 | 0.00 | 19 | 1011.8 |
| 20260507233311 | 25 | 254 | 14.5 | 27.4 | 0.00 | 0.00 | 0.00 | 18 | 1011.9 |
| 20260507232758 | 25 | 267 | 16.1 | 32.2 | 0.00 | 0.00 | 0.00 | 19 | 1011.9 |
| 20260507232255 | 25 | 303 | 16.1 | 32.2 | 0.00 | 0.00 | 0.00 | 18 | 1011.9 |
| 20260507231754 | 25 | 283 | 17.7 | 32.2 | 0.00 | 0.00 | 0.00 | 19 | 1011.8 |
| 20260507231248 | 25 | 294 | 16.1 | 32.2 | 0.00 | 0.00 | 0.00 | 19 | 1011.9 |
| 20260507230742 | 25 | 236 | 16.1 | 30.6 | 0.00 | 0.00 | 0.00 | 19 | 1011.9 |
| 20260507230236 | 24 | 314 | 17.7 | 29.0 | 0.00 | 0.00 | 0.00 | 20 | 1011.9 |
| 20260507225730 | 25 | 269 | 17.7 | 29.0 | 0.00 | 0.00 | 0.00 | 19 | 1012.0 |
| 20260507225224 | 25 | 284 | 16.1 | 29.0 | 0.00 | 0.00 | 0.00 | 20 | 1012.2 |
| 20260507224718 | 25 | 298 | 16.1 | 30.6 | 0.00 | 0.00 | 0.00 | 19 | 1012.2 |
| 20260507224213 | 25 | 241 | 16.1 | 30.6 | 0.00 | 0.00 | 0.00 | 19 | 1012.2 |
| 20260507223709 | 25 | 276 | 16.1 | 32.2 | 0.00 | 0.00 | 0.00 | 19 | 1012.3 |
| 20260507223200 | 25 | 267 | 16.1 | 32.2 | 0.00 | 0.00 | 0.00 | 19 | 1012.4 |
| 20260507222654 | 25 | 252 | 14.5 | 27.4 | 0.00 | 0.00 | 0.00 | 20 | 1012.4 |
| 20260507222148 | 25 | 338 | 14.5 | 25.7 | 0.00 | 0.00 | 0.00 | 21 | 1012.6 |
| 20260507221642 | 25 | 305 | 12.9 | 24.1 | 0.00 | 0.00 | 0.00 | 21 | 1012.6 |
| 20260507221138 | 25 | 348 | 11.3 | 24.1 | 0.00 | 0.00 | 0.00 | 22 | 1012.7 |
| 20260507220630 | 25 | 289 | 11.3 | 24.1 | 0.00 | 0.00 | 0.00 | 22 | 1012.6 |
| 20260507220125 | 25 | 339 | 12.9 | 24.1 | 0.00 | 0.00 | 0.00 | 22 | 1012.7 |
| 20260507215618 | 25 | 239 | 12.9 | 24.1 | 0.00 | 0.00 | 0.00 | 21 | 1012.7 |
| 20260507215112 | 25 | 345 | 12.9 | 25.7 | 0.00 | 0.00 | 0.00 | 23 | 1012.7 |
| 20260507214609 | 25 | 247 | 12.9 | 25.7 | 0.00 | 0.00 | 0.00 | 22 | 1012.7 |
| 20260507214100 | 25 | 350 | 11.3 | 25.7 | 0.00 | 0.00 | 0.00 | 22 | 1012.8 |
| 20260507213555 | 25 | 288 | 11.3 | 25.7 | 0.00 | 0.00 | 0.00 | 23 | 1012.8 |
| 20260507213048 | 25 | 244 | 9.7 | 20.9 | 0.00 | 0.00 | 0.00 | 22 | 1012.7 |
| 20260507212543 | 25 | 281 | 9.7 | 20.9 | 0.00 | 0.00 | 0.00 | 25 | 1012.8 |
| 20260507212035 | 25 | 350 | 12.9 | 25.7 | 0.00 | 0.00 | 0.00 | 24 | 1012.8 |
| 20260507211531 | 25 | 284 | 11.3 | 24.1 | 0.00 | 0.00 | 0.00 | 25 | 1012.8 |
| 20260507211027 | 25 | 355 | 9.7 | 20.9 | 0.00 | 0.00 | 0.00 | 25 | 1012.8 |
| 20260507210522 | 25 | 286 | 9.7 | 17.7 | 0.00 | 0.00 | 0.00 | 26 | 1012.9 |
| 20260507210247 | 25 | 340 | 9.7 | 22.5 | 0.00 | 0.00 | 0.00 | 25 | 1013.0 |
| 20260507205509 | 25 | 313 | 11.3 | 22.5 | 0.00 | 0.00 | 0.00 | 22 | 1013.0 |
| 20260507205232 | 25 | 290 | 9.7 | 22.5 | 0.00 | 0.00 | 0.00 | 21 | 1013.1 |
| 20260507204454 | 25 | 325 | 9.7 | 22.5 | 0.00 | 0.00 | 0.00 | 21 | 1013.2 |
| 20260507204209 | 24 | 324 | 11.3 | 27.4 | 0.00 | 0.00 | 0.00 | 21 | 1013.2 |
| 20260507203442 | 24 | 351 | 11.3 | 27.4 | 0.00 | 0.00 | 0.00 | 20 | 1013.2 |
| 20260507203227 | 24 | 337 | 9.7 | 22.5 | 0.00 | 0.00 | 0.00 | 21 | 1013.3 |
| 20260507202436 | 23 | 275 | 8.0 | 17.7 | 0.00 | 0.00 | 0.00 | 22 | 1013.3 |
| 20260507201937 | 23 | 355 | 8.0 | 20.9 | 0.00 | 0.00 | 0.00 | 20 | 1013.3 |
| 20260507201436 | 23 | 333 | 6.4 | 20.9 | 0.00 | 0.00 | 0.00 | 21 | 1013.4 |
| 20260507200934 | 23 | 274 | 4.8 | 17.7 | 0.00 | 0.00 | 0.00 | 24 | 1013.5 |
| 20260507200436 | 23 | 32 | 4.8 | 14.5 | 0.00 | 0.00 | 0.00 | 25 | 1013.5 |
| 20260507195934 | 23 | 269 | 6.4 | 16.1 | 0.00 | 0.00 | 0.00 | 24 | 1013.5 |
| 20260507195717 | 23 | 18 | 4.8 | 16.1 | 0.00 | 0.00 | 0.00 | 26 | 1013.6 |
| 20260507194941 | 23 | 13 | 3.2 | 16.1 | 0.00 | 0.00 | 0.00 | 28 | 1013.6 |
| 20260507194440 | 22 | 0 | 3.2 | 9.7 | 0.00 | 0.00 | 0.00 | 29 | 1013.6 |
| 20260507193938 | 22 | 69 | 4.8 | 12.9 | 0.00 | 0.00 | 0.00 | 27 | 1013.8 |
| 20260507193441 | 22 | 203 | 6.4 | 12.9 | 0.00 | 0.00 | 0.00 | 27 | 1013.8 |
| 20260507192940 | 22 | 200 | 6.4 | 14.5 | 0.00 | 0.00 | 0.00 | 28 | 1013.8 |
| 20260507192501 | 22 | 271 | 6.4 | 14.5 | 0.00 | 0.00 | 0.00 | 29 | 1013.9 |
| 20260507191713 | 22 | 260 | 8.0 | 17.7 | 0.00 | 0.00 | 0.00 | 29 | 1014.0 |
| 20260507190931 | 22 | 294 | 6.4 | 16.1 | 0.00 | 0.00 | 0.00 | 30 | 1014.0 |
| 20260507190458 | 22 | 267 | 6.4 | 16.1 | 0.00 | 0.00 | 0.00 | 30 | 1014.2 |
| 20260507190454 | 22 | 260 | 6.4 | 14.5 | 0.00 | 0.00 | 0.00 | 29 | 1014.1 |
| 20260507185430 | 21 | 282 | 6.4 | 16.1 | 0.00 | 0.00 | 0.00 | 30 | 1014.2 |
| 20260507184930 | 21 | 276 | 3.2 | 12.9 | 0.00 | 0.00 | 0.00 | 33 | 1014.2 |
| 20260507184430 | 21 | 346 | 4.8 | 9.7 | 0.00 | 0.00 | 0.00 | 35 | 1014.3 |
| 20260507183929 | 21 | 0 | 6.4 | 14.5 | 0.00 | 0.00 | 0.00 | 35 | 1014.4 |
| 20260507183431 | 20 | 315 | 3.2 | 14.5 | 0.00 | 0.00 | 0.00 | 36 | 1014.4 |
| 20260507182927 | 20 | 355 | 3.2 | 9.7 | 0.00 | 0.00 | 0.00 | 37 | 1014.5 |
| 20260507182424 | 20 | 317 | 3.2 | 9.7 | 0.00 | 0.00 | 0.00 | 36 | 1014.5 |
| 20260507181924 | 20 | 345 | 3.2 | 6.4 | 0.00 | 0.00 | 0.00 | 37 | 1014.5 |
| 20260507181712 | 20 | 67 | 3.2 | 9.7 | 0.00 | 0.00 | 0.00 | 37 | 1014.5 |
| 20260507180922 | 20 | 343 | 3.2 | 9.7 | 0.00 | 0.00 | 0.00 | 38 | 1014.6 |
| 20260507180711 | 20 | 344 | 3.2 | 9.7 | 0.00 | 0.00 | 0.00 | 40 | 1014.6 |
| 20260507175920 | 20 | 119 | 4.8 | 9.7 | 0.00 | 0.00 | 0.00 | 39 | 1014.7 |
| 20260507175420 | 20 | 118 | 3.2 | 12.9 | 0.00 | 0.00 | 0.00 | 40 | 1014.7 |
| 20260507174919 | 20 | 148 | 3.2 | 12.9 | 0.00 | 0.00 | 0.00 | 40 | 1014.8 |
| 20260507174427 | 19 | 113 | 4.8 | 12.9 | 0.00 | 0.00 | 0.00 | 41 | 1014.8 |
| 20260507174145 | 19 | 135 | 4.8 | 12.9 | 0.00 | 0.00 | 0.00 | 41 | 1015.0 |
| 20260507173421 | 19 | 355 | 3.2 | 9.7 | 0.00 | 0.00 | 0.00 | 43 | 1015.0 |
| 20260507172918 | 18 | 0 | 1.6 | 8.0 | 0.00 | 0.00 | 0.00 | 43 | 1015.0 |
| 20260507172418 | 18 | 306 | 3.2 | 8.0 | 0.00 | 0.00 | 0.00 | 44 | 1015.0 |
| 20260507171917 | 18 | 13 | 3.2 | 8.0 | 0.00 | 0.00 | 0.00 | 42 | 1015.1 |
| 20260507171417 | 18 | 121 | 4.8 | 8.0 | 0.00 | 0.00 | 0.00 | 43 | 1015.1 |
| 20260507170911 | 18 | 263 | 3.2 | 9.7 | 0.00 | 0.00 | 0.00 | 44 | 1015.1 |
| 20260507170649 | 18 | 232 | 1.6 | 9.7 | 0.00 | 0.00 | 0.00 | 45 | 1015.1 |
| 20260507165859 | 18 | 221 | 3.2 | 9.7 | 0.00 | 0.00 | 0.00 | 47 | 1015.1 |
| 20260507165354 | 17 | 221 | 3.2 | 9.7 | 0.00 | 0.00 | 0.00 | 47 | 1015.1 |
| 20260507164848 | 17 | 255 | 1.6 | 6.4 | 0.00 | 0.00 | 0.00 | 47 | 1015.2 |
| 20260507164341 | 17 | 202 | 3.2 | 12.9 | 0.00 | 0.00 | 0.00 | 48 | 1015.1 |
| 20260507163837 | 17 | 223 | 3.2 | 12.9 | 0.00 | 0.00 | 0.00 | 48 | 1015.2 |
| 20260507163330 | 17 | 255 | 3.2 | 8.0 | 0.00 | 0.00 | 0.00 | 49 | 1015.1 |
| 20260507162823 | 17 | 239 | 3.2 | 9.7 | 0.00 | 0.00 | 0.00 | 49 | 1015.1 |
| 20260507162317 | 16 | 53 | 4.8 | 9.7 | 0.00 | 0.00 | 0.00 | 51 | 1015.1 |
| 20260507161811 | 16 | 321 | 3.2 | 9.7 | 0.00 | 0.00 | 0.00 | 51 | 1015.1 |
| 20260507161308 | 16 | 316 | 1.6 | 8.0 | 0.00 | 0.00 | 0.00 | 51 | 1015.1 |
| 20260507160803 | 16 | 348 | 4.8 | 12.9 | 0.00 | 0.00 | 0.00 | 52 | 1015.2 |
| 20260507160254 | 16 | 277 | 4.8 | 12.9 | 0.00 | 0.00 | 0.00 | 52 | 1015.2 |
| 20260507155747 | 16 | 355 | 3.2 | 12.9 | 0.00 | 0.00 | 0.00 | 54 | 1015.3 |
| 20260507155241 | 16 | 17 | 3.2 | 12.9 | 0.00 | 0.00 | 0.00 | 54 | 1015.3 |
| 20260507154735 | 16 | 32 | 3.2 | 14.5 | 0.00 | 0.00 | 0.00 | 54 | 1015.3 |
| 20260507154232 | 15 | 346 | 3.2 | 14.5 | 0.00 | 0.00 | 0.00 | 56 | 1015.3 |
| 20260507153723 | 15 | 325 | 1.6 | 8.0 | 0.00 | 0.00 | 0.00 | 57 | 1015.3 |
| 20260507153218 | 15 | 0 | 3.2 | 8.0 | 0.00 | 0.00 | 0.00 | 57 | 1015.3 |
| 20260507152951 | 15 | 9 | 1.6 | 8.0 | 0.00 | 0.00 | 0.00 | 57 | 1015.3 |
| 20260507152434 | 15 | 124 | 1.6 | 4.8 | 0.00 | 0.00 | 0.00 | 58 | 1015.3 |
| 20260507151700 | 15 | 124 | 1.6 | 8.0 | 0.00 | 0.00 | 0.00 | 59 | 1015.3 |
| 20260507151155 | 15 | 124 | 3.2 | 9.7 | 0.00 | 0.00 | 0.00 | 60 | 1015.3 |
| 20260507150935 | 14 | 277 | 1.6 | 9.7 | 0.00 | 0.00 | 0.00 | 60 | 1015.4 |
| 20260507150141 | 14 | 327 | 3.2 | 6.4 | 0.00 | 0.00 | 0.00 | 60 | 1015.3 |
| 20260507145916 | 14 | 346 | 3.2 | 6.4 | 0.00 | 0.00 | 0.00 | 60 | 1015.3 |
| 20260507145129 | 13 | 346 | 1.6 | 12.9 | 0.00 | 0.00 | 0.00 | 62 | 1015.4 |
| 20260507144623 | 13 | 300 | 3.2 | 12.9 | 0.00 | 0.00 | 0.00 | 62 | 1015.4 |
| 20260507144122 | 13 | 306 | 4.8 | 16.1 | 0.00 | 0.00 | 0.00 | 63 | 1015.4 |
| 20260507143621 | 13 | 335 | 6.4 | 16.1 | 0.00 | 0.00 | 0.00 | 64 | 1015.4 |
| 20260507143121 | 12 | 292 | 6.4 | 14.5 | 0.00 | 0.00 | 0.00 | 66 | 1015.3 |
| 20260507142622 | 12 | 316 | 4.8 | 14.5 | 0.00 | 0.00 | 0.00 | 68 | 1015.3 |
| 20260507142414 | 11 | 298 | 1.6 | 8.0 | 0.00 | 0.00 | 0.00 | 70 | 1015.3 |
| 20260507141902 | 11 | 194 | 1.6 | 8.0 | 0.00 | 0.00 | 0.00 | 67 | 1015.3 |
| 20260507141124 | 11 | 65 | 1.6 | 4.8 | 0.00 | 0.00 | 0.00 | 68 | 1015.2 |
| 20260507140621 | 11 | 63 | 0.0 | 3.2 | 0.00 | 0.00 | 0.00 | 69 | 1015.2 |
| 20260507140128 | 11 | 63 | 0.0 | 1.6 | 0.00 | 0.00 | 0.00 | 70 | 1015.2 |
| 20260507135653 | 11 | 63 | 0.0 | 0.0 | 0.00 | 0.00 | 0.00 | 69 | 1015.1 |
| 20260507134626 | 10 | 61 | 0.0 | 3.2 | 0.00 | 0.00 | 0.00 | 68 | 1015.0 |
| 20260507134125 | 11 | 61 | 0.0 | 3.2 | 0.00 | 0.00 | 0.00 | 68 | 1014.8 |
| 20260507133625 | 11 | 61 | 0.0 | 3.2 | 0.00 | 0.00 | 0.00 | 67 | 1014.8 |
| 20260507133123 | 11 | 58 | 0.0 | 0.0 | 0.00 | 0.00 | 0.00 | 65 | 1014.8 |
| 20260507132618 | 11 | 58 | 0.0 | 0.0 | 0.00 | 0.00 | 0.00 | 64 | 1014.7 |
| 20260507132355 | 12 | 58 | 0.0 | 3.2 | 0.00 | 0.00 | 0.00 | 63 | 1014.7 |
| 20260507131622 | 12 | 58 | 1.6 | 4.8 | 0.00 | 0.00 | 0.00 | 61 | 1014.7 |
| 20260507131118 | 12 | 57 | 3.2 | 8.0 | 0.00 | 0.00 | 0.00 | 60 | 1014.7 |
| 20260507130620 | 13 | 53 | 4.8 | 12.9 | 0.00 | 0.00 | 0.00 | 58 | 1014.7 |
| 20260507130120 | 13 | 326 | 6.4 | 16.1 | 0.00 | 0.00 | 0.00 | 58 | 1014.6 |
| 20260507125617 | 13 | 302 | 6.4 | 16.1 | 0.00 | 0.00 | 0.00 | 57 | 1014.6 |
| 20260507125123 | 13 | 310 | 8.0 | 20.9 | 0.00 | 0.00 | 0.00 | 56 | 1014.5 |
| 20260507124621 | 13 | 319 | 9.7 | 20.9 | 0.00 | 0.00 | 0.00 | 56 | 1014.5 |
| 20260507124119 | 13 | 336 | 9.7 | 19.3 | 0.00 | 0.00 | 0.00 | 56 | 1014.3 |
| 20260507123615 | 13 | 293 | 11.3 | 22.5 | 0.00 | 0.00 | 0.00 | 56 | 1014.3 |
| 20260507123116 | 13 | 284 | 11.3 | 22.5 | 0.00 | 0.00 | 0.00 | 55 | 1014.3 |
| 20260507122625 | 14 | 274 | 11.3 | 20.9 | 0.00 | 0.00 | 0.00 | 55 | 1014.3 |
| 20260507122614 | 13 | 259 | 11.3 | 22.5 | 0.00 | 0.00 | 0.00 | 55 | 1014.3 |
| 20260507121614 | 14 | 294 | 11.3 | 20.9 | 0.00 | 0.00 | 0.00 | 55 | 1014.4 |
| 20260507121115 | 14 | 318 | 11.3 | 24.1 | 0.00 | 0.00 | 0.00 | 54 | 1014.3 |
| 20260507120858 | 14 | 284 | 11.3 | 24.1 | 0.00 | 0.00 | 0.00 | 54 | 1014.4 |
| 20260507120122 | 14 | 304 | 11.3 | 20.9 | 0.00 | 0.00 | 0.00 | 55 | 1014.4 |
| 20260507115851 | 14 | 281 | 11.3 | 20.9 | 0.00 | 0.00 | 0.00 | 54 | 1014.4 |
| 20260507115116 | 13 | 278 | 9.7 | 20.9 | 0.00 | 0.00 | 0.00 | 56 | 1014.4 |
| 20260507114614 | 14 | 331 | 11.3 | 19.3 | 0.00 | 0.00 | 0.00 | 57 | 1014.5 |
| 20260507114341 | 14 | 275 | 11.3 | 20.9 | 0.00 | 0.00 | 0.00 | 58 | 1014.5 |
| 20260507113842 | 14 | 288 | 11.3 | 20.9 | 0.00 | 0.00 | 0.00 | 57 | 1014.6 |
| 20260507113100 | 14 | 310 | 9.7 | 20.9 | 0.00 | 0.00 | 0.00 | 56 | 1014.6 |
| 20260507112553 | 14 | 295 | 9.7 | 19.3 | 0.00 | 0.00 | 0.00 | 56 | 1014.5 |
| 20260507112046 | 14 | 283 | 9.7 | 19.3 | 0.00 | 0.00 | 0.00 | 54 | 1014.7 |
| 20260507111816 | 14 | 286 | 9.7 | 20.9 | 0.00 | 0.00 | 0.00 | 56 | 1014.7 |
| 20260507111034 | 13 | 257 | 8.0 | 20.9 | 0.00 | 0.00 | 0.00 | 55 | 1014.6 |
| 20260507110804 | 13 | 299 | 4.8 | 17.7 | 0.00 | 0.00 | 0.00 | 60 | 1014.6 |
| 20260507110022 | 13 | 301 | 6.4 | 14.5 | 0.00 | 0.00 | 0.00 | 62 | 1014.6 |
| 20260507105518 | 12 | 293 | 4.8 | 12.9 | 0.00 | 0.00 | 0.00 | 64 | 1014.7 |
| 20260507105011 | 12 | 301 | 3.2 | 8.0 | 0.00 | 0.00 | 0.00 | 65 | 1014.7 |
| 20260507104738 | 12 | 317 | 3.2 | 11.3 | 0.00 | 0.00 | 0.00 | 65 | 1014.7 |
| 20260507104234 | 12 | 313 | 3.2 | 11.3 | 0.00 | 0.00 | 0.00 | 66 | 1014.7 |
| 20260507103457 | 12 | 319 | 1.6 | 6.4 | 0.00 | 0.00 | 0.00 | 67 | 1014.6 |
| 20260507102946 | 12 | 355 | 0.0 | 6.4 | 0.00 | 0.00 | 0.00 | 67 | 1014.6 |
| 20260507102440 | 12 | 269 | 0.0 | 3.2 | 0.00 | 0.00 | 0.00 | 67 | 1014.8 |
| 20260507101939 | 12 | 267 | 0.0 | 3.2 | 0.00 | 0.00 | 0.00 | 66 | 1014.7 |
| 20260507101429 | 12 | 267 | 0.0 | 6.4 | 0.00 | 0.00 | 0.00 | 66 | 1014.7 |
| 20260507100923 | 12 | 267 | 0.0 | 6.4 | 0.00 | 0.00 | 0.00 | 65 | 1014.8 |
| 20260507100417 | 12 | 269 | 0.0 | 4.8 | 0.00 | 0.00 | 0.00 | 65 | 1014.8 |
| 20260507095910 | 13 | 269 | 1.6 | 6.4 | 0.00 | 0.00 | 0.00 | 65 | 1014.8 |
| 20260507095405 | 13 | 275 | 1.6 | 6.4 | 0.00 | 0.00 | 0.00 | 64 | 1014.8 |
| 20260507094859 | 13 | 279 | 1.6 | 8.0 | 0.00 | 0.00 | 0.00 | 63 | 1015.0 |
| 20260507094613 | 13 | 277 | 4.8 | 9.7 | 0.00 | 0.00 | 0.00 | 63 | 1015.0 |
| 20260507093846 | 13 | 253 | 3.2 | 9.7 | 0.00 | 0.00 | 0.00 | 62 | 1015.0 |
| 20260507093341 | 13 | 252 | 3.2 | 11.3 | 0.00 | 0.00 | 0.00 | 62 | 1015.0 |
| 20260507092834 | 14 | 269 | 6.4 | 19.3 | 0.00 | 0.00 | 0.00 | 61 | 1015.0 |
| 20260507092329 | 13 | 273 | 4.8 | 19.3 | 0.00 | 0.00 | 0.00 | 62 | 1015.1 |
| 20260507091822 | 13 | 283 | 1.6 | 9.7 | 0.00 | 0.00 | 0.00 | 63 | 1015.0 |
| 20260507091316 | 13 | 290 | 1.6 | 4.8 | 0.00 | 0.00 | 0.00 | 64 | 1015.1 |
| 20260507090812 | 13 | 306 | 1.6 | 6.4 | 0.00 | 0.00 | 0.00 | 64 | 1015.1 |
| 20260507090304 | 14 | 311 | 3.2 | 9.7 | 0.00 | 0.00 | 0.00 | 63 | 1015.1 |
| 20260507090029 | 14 | 290 | 3.2 | 11.3 | 0.00 | 0.00 | 0.00 | 63 | 1015.2 |
| 20260507085514 | 14 | 300 | 3.2 | 11.3 | 0.00 | 0.00 | 0.00 | 62 | 1015.2 |
| 20260507084747 | 14 | 311 | 4.8 | 11.3 | 0.00 | 0.00 | 0.00 | 61 | 1015.2 |
| 20260507084241 | 14 | 310 | 4.8 | 14.5 | 0.00 | 0.00 | 0.00 | 61 | 1015.2 |
| 20260507083734 | 14 | 287 | 4.8 | 14.5 | 0.00 | 0.00 | 0.00 | 61 | 1015.3 |
| 20260507083230 | 14 | 271 | 4.8 | 11.3 | 0.00 | 0.00 | 0.00 | 61 | 1015.3 |
| 20260507082730 | 14 | 274 | 4.8 | 11.3 | 0.00 | 0.00 | 0.00 | 61 | 1015.2 |
| 20260507082230 | 14 | 276 | 4.8 | 12.9 | 0.00 | 0.00 | 0.00 | 62 | 1015.2 |
| 20260507082016 | 14 | 265 | 4.8 | 14.5 | 0.00 | 0.00 | 0.00 | 62 | 1015.3 |
| 20260507081228 | 14 | 281 | 6.4 | 14.5 | 0.00 | 0.00 | 0.00 | 62 | 1015.2 |
| 20260507081021 | 14 | 266 | 6.4 | 12.9 | 0.00 | 0.00 | 0.00 | 63 | 1015.2 |
| 20260507080229 | 14 | 246 | 4.8 | 12.9 | 0.00 | 0.00 | 0.00 | 64 | 1015.3 |
| 20260507075728 | 14 | 259 | 4.8 | 16.1 | 0.00 | 0.00 | 0.00 | 65 | 1015.3 |
| 20260507075228 | 14 | 250 | 6.4 | 16.1 | 0.00 | 0.00 | 0.00 | 65 | 1015.4 |
| 20260507074728 | 14 | 248 | 6.4 | 14.5 | 0.00 | 0.00 | 0.00 | 66 | 1015.5 |
| 20260507074514 | 14 | 295 | 6.4 | 14.5 | 0.00 | 0.00 | 0.00 | 65 | 1015.5 |
| 20260507073728 | 14 | 258 | 4.8 | 14.5 | 0.00 | 0.00 | 0.00 | 65 | 1015.5 |
| 20260507073229 | 15 | 291 | 6.4 | 14.5 | 0.00 | 0.00 | 0.00 | 65 | 1015.5 |
| 20260507072728 | 15 | 291 | 6.4 | 16.1 | 0.00 | 0.00 | 0.00 | 65 | 1015.5 |
| 20260507072228 | 15 | 299 | 8.0 | 16.1 | 0.00 | 0.00 | 0.00 | 65 | 1015.5 |
| 20260507072014 | 15 | 302 | 6.4 | 16.1 | 0.00 | 0.00 | 0.00 | 64 | 1015.5 |
| 20260507071230 | 15 | 300 | 8.0 | 17.7 | 0.00 | 0.00 | 0.00 | 64 | 1015.5 |
| 20260507070726 | 15 | 281 | 6.4 | 17.7 | 0.00 | 0.00 | 0.00 | 63 | 1015.5 |
| 20260507070226 | 15 | 286 | 8.0 | 16.1 | 0.00 | 0.00 | 0.00 | 63 | 1015.5 |
| 20260507065727 | 15 | 306 | 9.7 | 20.9 | 0.00 | 0.00 | 0.00 | 63 | 1015.6 |
| 20260507065226 | 15 | 300 | 9.7 | 20.9 | 0.00 | 0.00 | 0.00 | 62 | 1015.6 |
| 20260507064726 | 16 | 292 | 12.9 | 22.5 | 0.00 | 0.00 | 0.00 | 62 | 1015.6 |
| 20260507064233 | 16 | 300 | 12.9 | 22.5 | 0.00 | 0.00 | 0.00 | 61 | 1015.5 |
| 20260507063726 | 16 | 294 | 11.3 | 19.3 | 0.00 | 0.00 | 0.00 | 61 | 1015.6 |
| 20260507063227 | 16 | 265 | 11.3 | 17.7 | 0.00 | 0.00 | 0.00 | 61 | 1015.7 |
| 20260507062725 | 16 | 304 | 11.3 | 17.7 | 0.00 | 0.00 | 0.00 | 61 | 1015.6 |
| 20260507062227 | 16 | 292 | 11.3 | 20.9 | 0.00 | 0.00 | 0.00 | 61 | 1015.6 |
| 20260507061947 | 16 | 325 | 11.3 | 20.9 | 0.00 | 0.00 | 0.00 | 61 | 1015.6 |
| 20260507061726 | 16 | 325 | 11.3 | 20.9 | 0.00 | 0.00 | 0.00 | 61 | 1015.6 |
| 20260507061225 | 16 | 294 | 12.9 | 22.5 | 0.00 | 0.00 | 0.00 | 60 | 1015.6 |
| 20260507060726 | 16 | 288 | 12.9 | 22.5 | 0.00 | 0.00 | 0.00 | 60 | 1015.6 |
| 20260507060226 | 16 | 324 | 12.9 | 22.5 | 0.00 | 0.00 | 0.00 | 60 | 1015.6 |
| 20260507060016 | 16 | 300 | 11.3 | 20.9 | 0.00 | 0.00 | 0.00 | 59 | 1015.6 |
| 20260507055226 | 16 | 284 | 11.3 | 20.9 | 0.00 | 0.00 | 0.00 | 58 | 1015.6 |
| 20260507054735 | 16 | 304 | 11.3 | 20.9 | 0.00 | 0.00 | 0.00 | 57 | 1015.7 |
| 20260507054233 | 16 | 281 | 11.3 | 20.9 | 0.00 | 0.00 | 0.00 | 56 | 1015.8 |
| 20260507053731 | 16 | 308 | 11.3 | 20.9 | 0.00 | 0.00 | 0.00 | 56 | 1015.7 |
| 20260507053226 | 16 | 272 | 11.3 | 25.7 | 0.00 | 0.00 | 0.00 | 55 | 1015.7 |
| 20260507052720 | 17 | 274 | 11.3 | 25.7 | 0.00 | 0.00 | 0.00 | 53 | 1015.8 |
| 20260507052210 | 17 | 254 | 11.3 | 20.9 | 0.00 | 0.00 | 0.00 | 52 | 1015.8 |
| 20260507051706 | 17 | 266 | 11.3 | 24.1 | 0.00 | 0.00 | 0.00 | 52 | 1015.8 |
| 20260507051441 | 17 | 320 | 11.3 | 24.1 | 0.00 | 0.00 | 0.00 | 52 | 1015.8 |
| 20260507050651 | 17 | 246 | 11.3 | 19.3 | 0.00 | 0.00 | 0.00 | 51 | 1015.8 |
| 20260507050418 | 17 | 267 | 11.3 | 19.3 | 0.00 | 0.00 | 0.00 | 50 | 1015.8 |
| 20260507045642 | 17 | 257 | 9.7 | 19.3 | 0.00 | 0.00 | 0.00 | 49 | 1015.8 |
| 20260507045137 | 17 | 267 | 9.7 | 20.9 | 0.00 | 0.00 | 0.00 | 48 | 1015.8 |
| 20260507044628 | 17 | 247 | 9.7 | 20.9 | 0.00 | 0.00 | 0.00 | 47 | 1015.8 |
| 20260507044123 | 17 | 267 | 9.7 | 19.3 | 0.00 | 0.00 | 0.00 | 47 | 1015.8 |
| 20260507043619 | 17 | 271 | 9.7 | 17.7 | 0.00 | 0.00 | 0.00 | 46 | 1015.8 |
| 20260507043347 | 17 | 255 | 9.7 | 19.3 | 0.00 | 0.00 | 0.00 | 46 | 1015.8 |
| 20260507042610 | 17 | 249 | 9.7 | 19.3 | 0.00 | 0.00 | 0.00 | 46 | 1015.8 |
| 20260507042334 | 17 | 250 | 9.7 | 27.4 | 0.00 | 0.00 | 0.00 | 46 | 1015.8 |
| 20260507041601 | 18 | 288 | 9.7 | 27.4 | 0.00 | 0.00 | 0.00 | 46 | 1015.7 |
| 20260507041048 | 18 | 269 | 9.7 | 22.5 | 0.00 | 0.00 | 0.00 | 45 | 1015.7 |
| 20260507040539 | 18 | 259 | 9.7 | 20.9 | 0.00 | 0.00 | 0.00 | 45 | 1015.6 |
| 20260507040034 | 18 | 294 | 11.3 | 22.5 | 0.00 | 0.00 | 0.00 | 44 | 1015.5 |
| 20260507035532 | 18 | 281 | 11.3 | 24.1 | 0.00 | 0.00 | 0.00 | 43 | 1015.5 |
| 20260507035026 | 18 | 282 | 9.7 | 17.7 | 0.00 | 0.00 | 0.00 | 43 | 1015.4 |
| 20260507034516 | 18 | 273 | 9.7 | 17.7 | 0.00 | 0.00 | 0.00 | 43 | 1015.4 |
| 20260507034012 | 18 | 266 | 9.7 | 19.3 | 0.00 | 0.00 | 0.00 | 42 | 1015.3 |
| 20260507033507 | 18 | 286 | 9.7 | 19.3 | 0.00 | 0.00 | 0.00 | 42 | 1015.3 |
| 20260507033004 | 19 | 258 | 9.7 | 17.7 | 0.00 | 0.00 | 0.00 | 42 | 1015.2 |
| 20260507032457 | 19 | 261 | 8.0 | 17.7 | 0.00 | 0.00 | 0.00 | 41 | 1015.2 |
| 20260507031948 | 19 | 282 | 9.7 | 19.3 | 0.00 | 0.00 | 0.00 | 40 | 1015.2 |
| 20260507031442 | 20 | 254 | 9.7 | 22.5 | 0.00 | 0.00 | 0.00 | 39 | 1015.2 |
| 20260507030935 | 20 | 288 | 9.7 | 22.5 | 0.00 | 0.00 | 0.00 | 39 | 1015.1 |
| 20260507030429 | 20 | 274 | 11.3 | 19.3 | 0.00 | 0.00 | 0.00 | 39 | 1015.1 |
| 20260507025924 | 20 | 260 | 11.3 | 19.3 | 0.00 | 0.00 | 0.00 | 38 | 1014.8 |
| 20260507025419 | 21 | 281 | 11.3 | 20.9 | 0.00 | 0.00 | 0.00 | 39 | 1014.8 |
| 20260507024912 | 21 | 279 | 11.3 | 22.5 | 0.00 | 0.00 | 0.00 | 39 | 1014.8 |
| 20260507024647 | 21 | 294 | 11.3 | 22.5 | 0.00 | 0.00 | 0.00 | 39 | 1014.8 |
| 20260507023903 | 21 | 266 | 11.3 | 20.9 | 0.00 | 0.00 | 0.00 | 39 | 1014.7 |
| 20260507023632 | 21 | 299 | 9.7 | 20.9 | 0.00 | 0.00 | 0.00 | 39 | 1014.7 |
| 20260507023134 | 21 | 271 | 9.7 | 17.7 | 0.00 | 0.00 | 0.00 | 39 | 1014.6 |
| 20260507022358 | 21 | 287 | 11.3 | 22.5 | 0.00 | 0.00 | 0.00 | 39 | 1014.6 |
| 20260507022133 | 21 | 292 | 9.7 | 22.5 | 0.00 | 0.00 | 0.00 | 38 | 1014.5 |
| 20260507021359 | 21 | 309 | 6.4 | 17.7 | 0.00 | 0.00 | 0.00 | 38 | 1014.5 |
| 20260507020900 | 21 | 287 | 8.0 | 16.1 | 0.00 | 0.00 | 0.00 | 38 | 1014.5 |
| 20260507020402 | 21 | 315 | 8.0 | 16.1 | 0.00 | 0.00 | 0.00 | 38 | 1014.5 |
| 20260507015900 | 22 | 268 | 6.4 | 16.1 | 0.00 | 0.00 | 0.00 | 38 | 1014.6 |
| 20260507015444 | 22 | 276 | 6.4 | 16.1 | 0.00 | 0.00 | 0.00 | 37 | 1014.6 |
| 20260507015211 | 22 | 321 | 6.4 | 14.5 | 0.00 | 0.00 | 0.00 | 37 | 1014.5 |
| 20260507013900 | 22 | 274 | 6.4 | 17.7 | 0.00 | 0.00 | 0.00 | 36 | 1014.5 |